Probability
0 0 0 0 0 0 0 0 0 0 0 0 0 0 0 0 0 0 0 0 0 0 0 0 0 0 0 0 0 0 0 0 0 0 0 0 0 0 0 0 0 0 0
0 0 0 0 0 0 0 0 0 0 0 0 0 0 0 0 0 0 0 0 0 0 0 0 0 0 0 0 0 0 0 0 0 0 0 0 0 0 0 0 0 0 0
0 0 0 0 0 0 0 0 0 0 0 0 0 0 0 0 0 0 0 0 0 0 0 0 0 0 0 0 0 0 0 0 0 0 0 0 0 0 0 0 0 0 0
0 0 0 0 0 0 0 0 0 0 0 0 0 0 0 0 0 0 0 0 0 0 0 0 0 0 0 0 0 0 0 0 0 0 0 0 0 0 0 0 0 0 0
0 0 0 0 0 0 0 0 0 0 0 0 0 0 0 0 0 0 0 0 0 0 0 0 0 0 0 0 0 0 0 0 0 0 0 0 0 0 0 0 0 0 0
0 0 0 0 0 0 0 0 0 0 0 0 0 0 0 0 0 0 0 0 0 0 0 0 0 0 0 0 0 0 0 0 0 0 0 0 0 0 0 0 0 0 0
0 0 0 0 0 0 0 0 0 0 0 0 0 0 0 0 0 0 0 0 0 0 0 0 0 0 0 0 0 0 0 0 0 0 0 0 0 0 0 0 0 0 0
0 0 0 0 0 0 0 0 0 0 0 0 0 0 0 0 0 0 0 0 0 0 0 0 0 0 0 0 0 0 0 0 0 0 0 0 0 0 0 0 0 0 0
0 0 0 0 0 0 0 0 0 0 0 0 0 0 0 0 0 0 0 0 0 0 0 0 0 0 0 0 0 0 0 0 0 0 0 0 0 0 0 0 0 0 0
0 0 0 0 0 0 0 0 0 0 0 0 0 0 0 0 0 0 0 0 0 0 0 0 0 0 0 0 0 0 0 0 0 0 0 0 0 0 0 0 0 0 0
0 0 0 0 0 0 0 0 0 0 0 0 0 0 0 0 0 0 0 0 0 0 0 0 0 0 0 0 0 0 0 0 0 0 0 0 0 0 0 0 0 0 0
0 0 0 0 0 0 0 0 0 0 0 0 0 0 0 0 0 0 0 0 0 0 0 0 0 0 0 0 0 0 0 0 0 0 0 0 0 0 0 0 0 0 0
0 0 0 0 0 0 0 0 0 0 0 0 0 0 0 0 0 0 0 0 0 0 0 0 0 0 0 0 0 0 0 0 0 0 0 0 0 0 0 0 0 0 0
0 0 0 0 0 0 0 0 0 0 0 0 0 0 0 0 0 0 0 0 0 0 0 0 0 0 0 0 0 0 0 0 0 0 0 0 0 0 0 0 0 0 0
0 0 0 0 0 0 0 0 0 0 0 0 0 0 0 0 0 0 0 0 0 0 0 0 0 0 0 0 0 0 0 0 0 0 0 0 0 0 0 0 0 0 0
0 0 0 0 0 0 0 0 0 0 0 0 0 0 0 0 0 0 0 0 0 0 0 0 0 0 0 0 0 0 0 0 0 0 0 0 0 0 0 0 0 0 0
0 0 0 0 0 0 0 0 0 0 0 0 0 0 0 0 0 0 0 0 0 0 0 0 0 0 0 0 0 0 0 0 0 0 0 0 0 0 0 0 0 0 0
0 0 0 0 0 0 0 0 0 0 0 0 0 0 0 0 0 0 0 0 0 0 0 0 0 0 0 0 0 0 0 0 0 0 0 0 0 0 0 0 0 0 0
0 0 0 0 0 0 0 0 0 0 0 0 0 0 0 0 0 0 0 0 0 0 0 0 0 0 0 0 0 0 0 0 0 0 0 0 0 0 0 0 0 0 0
0 0 0 0 0 0 0 0 0 0 0 0 0 0 0 0 0 0 0 0 0 0 0 0 0 0 0 0 0 0 0 0 0 0 0 0 0 0 0 0 0 0 0
0 0 0 0 0 0 0 0 0 0 0 0 0 0 0 0 0 0 0 0 0 0 0 0 0 0 0 0 0 0 0 0 0 0 0 0 0 0 0 0 0 0 0
0 0 0 0 0 0 0 0 0 0 0 0 0 0 0 0 0 0 0 0 0 0 0 0 0 0 0 0 0 0 0 0 0 0 0 0 0 0 0 0 0 0 0
0 0 0 0 0 0 0 0 0 0 0 0 0 0 0 0 0 0 0 0 0 0 0 0 0 0 0 0 0 0 0 0 0 0 0 0 0 0 0 0 0 0 0
0 0 0 0 0 0 0 0 0 0 0 0 0 0 0 0 0 0 0 0 0 0 0 0 0 0 0 0 0 0 0 0 0 0 0 0 0 0 0 0 0 0 0
0 0 0 0 0 0 0 0 0 0 0 0 0 0 0 0 0 0 0 0 0 0 0 0 0 0 0 0 0 0 0 0 0 0 0 0 0 0 0 0 0 0 0
0 0 0 0 0 0 0 0 0 0 0 0 0 0 0 0 0 0 0 0 0 0 0 0 0 0 0 0 0 0 0 0 0 0 0 0 0 0 0 0 0 0 0
Wind_Speed
4 4 4 4 4 3 3 3 2 2 2 2 2 2 2 2 3 3 3 3 4 4 4 5 5 5 4 4 4 4 5 5 8 7 7 7 9 9 8 8 8 8 8
4 4 4 4 4 3 3 3 2 2 1 1 1 2 2 3 3 3 4 4 4 5 5 5 5 4 6 5 4 5 5 5 7 9 8 7 9 9 9 9 8 7 8
3 4 4 4 3 3 2 2 2 1 1 1 2 2 2 3 3 3 4 4 5 5 5 5 5 5 6 5 5 5 5 5 5 7 8 7 7 7 8 8 9 8 8
3 3 3 3 2 2 2 1 1 1 1 1 1 2 2 3 3 3 4 4 5 4 4 5 5 6 6 6 5 5 5 5 5 6 6 6 6 7 7 7 8 7 7
3 3 2 2 2 2 1 1 1 1 1 1 1 2 2 3 3 3 4 4 4 4 4 4 5 5 7 6 5 5 5 4 5 5 6 6 6 6 6 6 8 8 8
3 2 2 2 2 1 1 0 0 1 1 1 2 2 3 2 3 4 4 4 4 4 4 4 4 5 5 6 6 7 7 6 6 5 5 6 7 7 6 6 7 8 7
3 2 2 2 1 1 0 0 1 1 1 1 2 3 3 3 4 4 4 4 4 4 4 4 4 4 5 4 4 5 6 6 7 6 6 6 7 7 8 8 8 8 8
2 2 2 1 1 1 0 1 1 1 1 2 2 3 3 3 4 4 4 4 4 4 4 4 4 4 3 4 4 4 4 5 5 4 5 6 6 7 7 8 8 9 8
2 2 2 2 1 1 1 1 1 1 2 2 2 3 3 3 3 4 4 3 3 3 3 3 3 3 4 5 4 4 5 4 4 5 6 6 8 9 8 6 6 6 6
1 2 2 2 2 2 2 2 2 2 2 2 2 3 3 3 3 3 4 2 3 2 2 2 3 3 4 5 4 4 5 5 5 5 5 5 6 6 7 6 5 5 5
2 2 2 2 2 2 2 2 2 1 2 2 2 2 2 3 3 3 3 2 2 2 2 2 2 3 5 5 5 4 5 6 5 5 5 5 5 4 5 5 4 5 5
1 1 2 2 2 2 2 2 1 1 1 2 2 2 2 2 3 3 3 3 3 3 3 2 2 4 5 6 4 4 5 6 4 4 4 4 5 5 5 5 6 6 6
1 1 2 2 2 2 2 2 1 1 1 1 1 2 2 2 2 3 3 4 4 3 2 3 4 5 5 4 3 5 5 3 3 4 4 5 5 5 6 5 5 6 6
2 2 2 2 2 2 2 2 1 1 1 2 2 2 2 2 2 2 2 2 2 2 2 2 4 4 3 3 4 3 3 3 4 4 4 5 5 5 5 5 5 5 5
2 2 2 2 2 2 2 2 2 2 2 2 2 2 2 3 3 5 4 3 3 2 3 2 2 2 2 2 2 3 3 3 3 4 4 5 5 5 5 5 4 4 4
2 2 2 2 2 2 2 2 2 2 3 3 3 3 3 4 5 5 5 5 4 3 3 2 2 2 3 3 3 3 3 3 4 4 4 4 5 5 5 5 4 4 5
2 2 2 2 2 2 2 2 2 2 2 2 2 3 3 4 5 5 4 4 3 3 2 2 3 3 3 3 3 3 4 4 4 4 4 4 4 5 5 5 4 4 5
3 2 2 2 2 2 2 2 2 2 2 2 2 2 3 4 4 4 4 3 2 2 2 3 3 3 3 3 3 4 4 4 4 4 4 4 4 4 5 5 4 5 5
2 2 2 2 2 2 2 2 2 3 2 2 2 2 2 3 3 3 3 2 2 2 2 3 3 3 3 3 4 4 4 4 4 4 4 4 4 4 5 5 5 6 5
2 3 3 2 2 2 2 2 2 2 2 2 2 2 2 2 2 2 2 2 3 3 3 3 3 4 4 4 4 4 4 4 4 4 4 4 4 4 5 5 5 5 4
2 2 3 2 2 2 2 2 2 2 2 2 2 3 4 3 3 3 3 3 3 3 3 4 4 4 4 4 4 4 5 4 4 4 4 4 4 4 4 4 4 4 4
2 2 2 2 2 2 2 2 2 2 3 3 3 3 4 3 3 3 3 3 3 3 4 4 4 4 4 4 4 4 5 5 4 4 4 4 4 4 4 4 4 4 4
2 2 2 2 2 2 3 2 2 2 3 3 3 3 3 3 3 3 3 4 3 4 4 4 4 4 4 4 4 4 5 5 5 5 5 4 4 4 3 3 4 4 4
2 2 2 2 2 2 2 2 2 2 3 3 3 3 3 3 3 3 4 4 4 4 4 4 4 5 6 5 4 4 4 5 5 4 6 5 4 4 3 3 3 4 4
2 2 2 2 2 2 2 2 2 3 3 3 3 3 3 3 3 3 4 4 4 4 5 5 4 5 6 7 6 5 6 7 6 5 4 4 4 4 4 4 3 3 3
2 2 2 2 2 2 2 2 3 3 3 3 3 3 3 3 3 4 4 4 4 4 4 4 5 6 7 6 6 7 7 7 6 6 4 3 3 3 3 3 3 3 3
Wind_Direction
155 156 157 155 157 159 161 165 167 174 187 203 222 243 254 262 266 266 268 271 273 277 276 272 269 269 270 269 268 266 268 271 278 289 297 302 305 306 310 313 312 309 306
144 147 146 145 147 152 155 160 167 174 182 207 227 242 256 262 265 266 272 274 273 276 278 277 279 279 273 273 271 271 271 270 275 286 294 300 303 308 311 312 312 310 308
127 137 138 140 143 147 149 150 161 177 189 212 230 245 258 267 270 270 271 272 274 276 279 280 284 287 284 280 277 275 274 275 275 280 291 299 303 310 313 312 312 312 312
112 123 127 128 131 134 133 143 165 193 206 227 245 259 268 271 270 271 271 273 276 280 283 284 285 284 286 289 283 282 286 285 283 281 286 296 302 310 311 313 313 316 315
99 107 108 103 102 107 114 137 179 222 232 244 257 268 271 269 271 274 273 274 276 281 284 288 291 296 298 295 294 295 291 285 284 284 288 293 300 310 313 313 310 312 310
86 86 92 98 96 97 100 113 219 243 245 252 261 264 270 276 285 278 278 272 275 277 283 288 289 289 295 297 298 297 296 290 288 287 290 294 302 310 313 313 313 313 310
73 70 70 84 92 88 81 160 278 269 264 264 269 267 269 282 284 277 275 276 272 276 280 284 290 295 297 292 297 297 301 302 296 291 292 296 303 310 311 310 309 306 301
65 56 44 47 49 30 1 296 291 279 267 264 269 271 273 283 289 277 276 269 270 273 277 281 283 291 303 306 304 306 311 312 309 297 292 298 306 310 308 303 300 297 291
47 29 20 8 354 327 309 305 298 279 270 269 271 272 275 286 291 279 276 266 267 275 285 292 292 294 313 311 304 306 309 314 325 317 309 307 310 315 313 303 304 306 304
7 353 353 352 331 313 307 301 289 275 274 275 274 278 280 287 300 291 280 264 265 277 291 296 306 308 312 311 303 303 303 310 313 313 310 307 305 308 312 304 302 300 302
337 334 341 345 324 316 311 301 294 278 276 278 282 288 289 297 309 312 299 281 272 278 284 290 299 311 311 313 309 302 302 306 304 305 306 310 309 310 313 310 301 291 291
332 335 338 335 327 314 310 309 304 283 278 280 284 300 306 312 320 322 320 310 297 284 287 292 302 313 311 312 308 310 311 307 301 303 305 308 311 312 311 307 299 288 278
324 330 329 325 318 307 304 303 301 286 274 283 289 298 311 315 327 338 332 328 320 300 297 307 310 311 307 304 317 319 311 303 301 300 302 305 307 305 305 302 298 293 286
319 323 318 313 313 315 307 301 294 279 272 278 286 294 306 311 315 320 318 316 312 298 293 304 307 308 302 308 311 309 304 304 302 297 300 301 302 305 307 307 303 308 304
316 315 311 305 303 313 315 314 299 287 275 271 276 281 288 294 312 319 314 306 301 296 298 289 288 290 295 298 300 306 307 305 302 299 297 300 304 306 308 312 305 306 305
305 307 304 302 304 303 307 312 321 294 294 284 280 280 293 296 308 310 313 313 309 301 297 283 285 290 295 300 304 307 307 305 302 300 298 298 302 304 305 306 305 305 306
287 292 291 289 289 290 291 289 300 323 315 302 300 297 293 301 305 304 310 313 303 297 286 283 285 288 291 294 296 296 298 300 299 296 296 296 297 298 298 300 304 304 306
287 282 280 276 275 273 275 280 280 288 303 312 317 306 306 309 308 307 304 297 289 289 279 281 284 287 289 290 291 291 292 294 294 294 295 295 295 295 296 298 301 304 304
285 276 275 273 273 275 274 276 277 278 281 290 300 303 309 314 313 312 306 286 279 281 281 282 284 284 284 285 286 286 287 290 293 294 293 294 295 295 295 297 298 303 300
285 280 282 277 275 275 275 273 276 279 282 285 291 298 306 304 299 306 302 292 286 284 282 282 284 284 285 284 284 283 283 285 290 289 292 293 294 292 293 294 298 300 300
281 279 281 281 277 279 278 276 279 282 282 285 294 300 297 292 291 293 293 290 287 286 284 281 280 281 280 281 281 281 283 286 288 290 291 293 294 292 292 293 297 298 301
272 273 273 275 275 274 276 277 278 280 285 289 294 300 302 290 284 284 287 289 287 284 283 280 279 281 282 282 283 283 283 285 288 289 291 292 290 290 289 291 295 299 300
262 264 268 268 266 268 274 274 275 279 283 288 295 297 295 288 286 286 288 289 288 285 284 282 282 283 285 283 279 279 282 284 287 287 288 288 289 290 291 290 294 298 300
269 264 262 263 262 262 266 272 275 278 282 286 288 290 290 288 287 287 288 289 287 286 286 286 286 288 290 289 284 280 279 284 286 282 281 282 287 289 290 291 294 296 297
266 261 260 261 259 259 262 268 272 275 277 279 283 284 283 284 286 287 288 290 291 290 293 293 290 290 290 289 288 288 290 288 287 287 279 276 279 284 286 288 291 299 301
266 262 259 259 260 262 263 266 271 275 276 278 278 278 280 282 284 287 288 289 291 291 291 290 291 292 294 291 288 290 293 293 293 292 285 275 271 275 281 280 290 294 298